Location: Białystok
(53.1343°N, 23.1544°E)
Time: 21:41:55
(UTC+02:00)

ISS - Pass Details

Date: 30 January 2019
Orbit: 411 x 421 km, 51.6° (Epoch: 16 October)

Event Time Altitude Azimuth Distance (km) Brightness Sun altitude
Rises 18:54:16 0° 273° (W) 2,377 1.5 -25.0°
Reaches altitude 10° 18:56:23 10° 270° (W) 1,512 0.1 -25.3°
Enters shadow 18:58:19 31° 260° (W) 775 -1.9 -25.6°
